Amarillo, TX

11:37 AM CST on December 06, 2019 (GMT -0600)
Amarillo International

Weather History for KAMA - June, 2019

Change the Weather History Date:

Sunday, June 9, 2019

  Actual Average Record
Temperature  
Mean Temperature 63 °F 73 °F  
Max Temperature 73 °F 86 °F 106 °F (1981)
Min Temperature 53 °F 59 °F 46 °F (1955)
Degree Days  
Heating Degree Days 2 0  
Month to date heating degree days 2 5  
Since 1 June heating degree days 2 5  
Since 1 July heating degree days 4104 4176  
Cooling Degree Days 0 8  
Month to date cooling degree days 44 64  
Year to date cooling degree days 106 189  
Since 1 June cooling degree days 44 64  
Growing Degree Days 9 (Base 50)    
Moisture  
Dew Point 53 °F    
Average Humidity 77    
Maximum Humidity 93    
Minimum Humidity 60    
Precipitation  
Precipitation T in 0.11 in 4.06 in (1960)
Month to date precipitation 2.50 1.04  
Year to date precipitation 10.28 7.40  
Snow  
Snow 0.00 in 0.00 in 0.00 in (2013)
Month to date snowfall 0.0 0.0  
Since 1 June snowfall 0.0 0.0  
Since 1 July snowfall 8.1 17.8  
Snow Depth 0.00 in    
Sea Level Pressure  
Sea Level Pressure 30.09 in    
Wind  
Wind Speed 22 mph (North)    
Max Wind Speed 41 mph    
Max Gust Speed 52 mph    
Visibility 9 miles    
Events      
T = Trace of Precipitation, MM = Missing Value Source: NWS Daily Summary

Daily Weather History Graph

Daily Weather History Graph

Search for Another Location

Airport or City:

Astronomy

Jun. 09, 2019 Rise Set
Actual Time 6:31 AM CDT 9:00 PM CDT
Civil Twilight 6:02 AM CDT 9:30 PM CDT
Nautical Twilight 5:25 AM CDT 10:06 PM CDT
Astronomical Twilight 4:45 AM CDT 10:47 PM CDT
Moon 1:04 PM CDT (6/9) 1:48 AM CDT (6/9)
Length of Visible Light 15h 27m
Length of Day
14h 28m
Waxing Crescent, 44% of the Moon is Illuminated
Jun 9
Waxing Crescent
Jun 10
First Quarter
Jun 17
Full
Jun 25
Last Quarter
Jul 2
New

Hourly Weather History & Observations

Time (CDT) Temp. Dew Point Humidity Pressure Visibility Wind Dir Wind Speed Gust Speed Precip Events Conditions
12:53 AM 73.0 °F 63.0 °F 71% 29.73 in 10.0 mi South 13.8 mph - N/A   Clear
1:53 AM 70.0 °F 63.0 °F 78% 29.74 in 10.0 mi South 10.4 mph - N/A   Clear
2:53 AM 70.0 °F 64.0 °F 81% 29.74 in 10.0 mi South 13.8 mph - N/A   Clear
3:53 AM 68.0 °F 63.0 °F 84% 29.74 in 10.0 mi South 10.4 mph - N/A   Clear
4:53 AM 66.0 °F 62.1 °F 87% 29.80 in 10.0 mi Variable 5.8 mph - N/A   Clear
5:53 AM 64.9 °F 57.9 °F 78% 29.85 in 10.0 mi NNW 17.3 mph - N/A   Clear
6:39 AM 64.9 °F 59.0 °F 81% 30.02 in 10.0 mi NNW 32.2 mph 42.6 mph N/A   Mostly Cloudy
6:53 AM 64.0 °F 59.0 °F 84% 29.88 in 10.0 mi NNW 28.8 mph 42.6 mph N/A   Overcast
7:36 AM 62.1 °F 57.0 °F 84% 30.06 in 10.0 mi NNW 32.2 mph 46.0 mph N/A   Overcast
7:53 AM 62.1 °F 57.0 °F 84% 29.92 in 10.0 mi NNW 26.5 mph 46.0 mph N/A   Overcast
8:53 AM 60.1 °F 55.0 °F 83% 29.99 in 10.0 mi North 35.7 mph 47.2 mph N/A   Overcast
9:53 AM 57.0 °F 53.1 °F 87% 30.04 in 8.0 mi North 28.8 mph 46.0 mph N/A   Overcast
10:53 AM 55.9 °F 52.0 °F 87% 30.09 in 8.0 mi North 34.5 mph 51.8 mph N/A   Overcast
11:07 AM 55.0 °F 52.0 °F 89% 30.22 in 2.5 mi North 35.7 mph 46.0 mph N/A   Overcast
11:53 AM 55.0 °F 52.0 °F 89% 30.14 in 2.5 mi North 31.1 mph 41.4 mph N/A   Overcast
12:53 PM 54.0 °F 51.1 °F 90% 30.18 in 2.5 mi North 31.1 mph 40.3 mph 0.00 in   Overcast
1:53 PM 54.0 °F 50.0 °F 86% 30.21 in 10.0 mi North 32.2 mph 40.3 mph N/A   Overcast
2:40 PM 55.9 °F 50.0 °F 80% 30.30 in 10.0 mi North 28.8 mph 39.1 mph N/A   Overcast
2:53 PM 55.0 °F 50.0 °F 83% 30.21 in 10.0 mi North 26.5 mph 36.8 mph N/A   Overcast
3:53 PM 55.9 °F 48.9 °F 77% 30.22 in 10.0 mi North 29.9 mph 39.1 mph N/A   Overcast
4:04 PM 57.0 °F 48.9 °F 74% 30.31 in 10.0 mi North 29.9 mph 38.0 mph N/A   Overcast
4:53 PM 57.9 °F 48.0 °F 70% 30.22 in 10.0 mi North 31.1 mph 38.0 mph N/A   Overcast
5:50 PM 60.8 °F 48.2 °F 63% 30.31 in 10.0 mi North 23.0 mph 31.1 mph N/A   Overcast
5:53 PM 61.0 °F 48.9 °F 64% 30.21 in 10.0 mi North 21.9 mph 29.9 mph N/A   Overcast
6:53 PM 60.1 °F 46.9 °F 62% 30.23 in 10.0 mi North 24.2 mph 28.8 mph N/A   Overcast
7:53 PM 59.0 °F 46.0 °F 62% 30.24 in 10.0 mi North 19.6 mph 27.6 mph N/A   Overcast
8:53 PM 57.9 °F 46.0 °F 65% 30.26 in 10.0 mi North 20.7 mph 26.5 mph N/A   Overcast
9:53 PM 57.9 °F 46.0 °F 65% 30.29 in 10.0 mi North 16.1 mph - N/A   Overcast
10:53 PM 57.0 °F 46.0 °F 67% 30.33 in 10.0 mi NNE 13.8 mph - N/A   Overcast
11:53 PM 57.0 °F 45.0 °F 64% 30.36 in 10.0 mi NNE 10.4 mph - N/A   Overcast